sat.trackr.live / text

‹ back to catalog

STARLINK-5921

NORAD 55926 · 2023-037N

PAYLOAD ACTIVE UNKNOWN

§ Identity

Operator
Country
US
Launch date
2023-03-17
Launch site
AFWTR
Launch vehicle
Mass (kg)
RCS (m²)

Purposes: comms

External: N2YO · Heavens-Above · Gunter

§ Orbital elements

Epoch: 2026-09-20T22:00:03.000096Z

Period
95.60 min
Inclination
69.9997°
Eccentricity
0.0004530
Mean motion
15.06319094 rev/d
Perigee alt
544.3 km
Apogee alt
550.6 km
Semi-major
6,925.6 km
B*
1.5551e-3
RAAN
152.2374°
Arg perigee
300.6568°
Mean anomaly
41.7698°
Rev number
571

§ Raw data

STARLINK-59211 55926U 23037N   26263.91670139  .00022887  00000+0  15551-2 0  99922 55926  69.9997 152.2374 0004530 300.6568  41.7698 15.06319094  5718

JSON: /api/v1/satellites/55926 · /tle

For live sub-satellite position, see the globe view (requires WebGL).

§ Visibility from observer

Set your observer location to see the next 7 days of passes ≥ 10°. The values pass through the URL so the page stays shareable.

No JS? Fill the form by hand. The geolocation button needs JavaScript.